Regional Weather Roundup
Issued by NWS Glasgow, MT

Home | Current Version | Previous Version | Text Only | Print | Product List | Glossary On
Versions: 1 2 3 4 5 6 7 8 9 10 11 12 13 14 15 16 17 18 19 20 21 22 23 24 25 26 27 28 29 30 31 32 33 34 35 36 37 38 39 40 41 42 43 44 45 46
000
ASUS45 KGGW 280515
RWRGGW
HOURLY WEATHER ROUNDUP FOR NORTHEAST MONTANA
NATIONAL WEATHER SERVICE GLASGOW MONTANA
1000 PM MST SAT DEC 27 2014

NOTE: "FAIR" INDICATES FEW OR NO CLOUDS BELOW 12,000 FEET WITH NO
SIGNIFICANT WEATHER AND/OR OBSTRUCTIONS TO VISISBILITY.

NORTHEAST MONTANA


CITY           SKY/WX    TMP DP  RH WIND       PRES   REMARKS
GLASGOW        CLOUDY    25  18  74 NW3       29.92F
PLENTYWOOD       N/A    N/A N/A N/A N10         N/A
WOLF POINT     CLOUDY    21  18  88 E13       29.97S
JORDAN           N/A     22  19  89 CALM      29.91F
WINNETT          N/A     11   8  88 SW2         N/A
SIDNEY         CLOUDY    21  18  86 CALM      30.00S
GLENDIVE       CLOUDY    19  16  86 S6        29.96S
MALTA            N/A     15  14  95 E1          N/A
SCOBEY           N/A     14   6  70 NE10      29.95R

FORT PECK REPORTS


CITY           SKY/WX    TMP DP  RH WIND       PRES   REMARKS
FORT PECK        N/A     31  24  75 W8          N/A
THE PINES        N/A     29  23  78 SW5         N/A

SOUTHEAST MONTANA


CITY           SKY/WX    TMP DP  RH WIND       PRES   REMARKS
BILLINGS       MOCLDY    21  10  62 SW16      29.92F
MILES CITY     CLOUDY    24  18  77 SW6       29.95F
BAKER          MOCLDY    23  17  78 SW12      29.96S
LIVINGSTON     FLURRIES  25  14  63 SW36G49   29.86F

CENTRAL MONTANA


CITY           SKY/WX    TMP DP  RH WIND       PRES   REMARKS
HAVRE          MOCLDY    20  16  84 N3        29.86F
LEWISTOWN      CLOUDY    20  12  71 E7        29.84F
GREAT FALLS    CLOUDY    29  20  69 S13       29.81F
CUT BANK       LGT SNOW  24  22  91 E3        29.79F FOG
HELENA         CLOUDY    23  17  78 W3        29.87F
BUTTE          CLOUDY    22  12  65 CALM      29.87F
BOZEMAN        CLOUDY    20  15  81 W3        29.90F

WESTERN MONTANA


CITY           SKY/WX    TMP DP  RH WIND       PRES   REMARKS
MISSOULA       CLOUDY    29  25  85 S18       29.89F
KALISPELL      NOT AVBL

NORTH DAKOTA


CITY           SKY/WX    TMP DP  RH WIND       PRES   REMARKS
WILLISTON      LGT SNOW  19  14  81 NE8       30.01S
DICKINSON      CLOUDY    21  15  78 S5        29.95S
MINOT          CLOUDY    11   6  81 N12       30.06S WCI  -3
BISMARCK       CLOUDY    14  12  92 CALM      30.05R

SOUTHERN SASKATCHEWAN


CITY           SKY/WX    TMP DP  RH WIND       PRES   REMARKS
REGINA         MOCLDY     1  -4  78 E6        30.09
ESTEVAN        FLURRIES  10   7  85 NE6       30.06
SWIFT CURRENT  CLOUDY    16  14  93 E10       29.92F FOG



USA.gov is the U.S. government's official web portal to all federal, state and local government web resources and services.